INTELSAT IVA F6

operational
NORAD ID: 10778 Int'l Des: 1978-035 Owner: INTEL Country: I-INT
MEOCIRCULAR

Über INTELSAT IVA F6

Beschreibung wird geladen...

Live-Position

3D-Globus wird geladen...

Nächste Überflüge

Höhenverlauf

Altitude vs Time

uPlot chart will show altitude changes over time

Zweizeiliger Elementsatz

1 10778U 78035A 25278.51716957 -.00000372 00000-0 00000+0 0 9993
2 10778 9.2641 313.3656 0008684 294.8823 61.6215 1.00366540119609
Epoch: 5. Okt. 2025 • Age: 11 hours

Aktueller Status

Höhe 35784.5 km
Geschwindigkeit 3.07 km/s
Subsatellitenpunkt 2.99°N, 109.57°E
Startdatum 31. März 1978
Alter 47.5 years
Typ communications

Technische Details

Klassifizierung Payload
Masse 769.00 kg
Trockenmasse 630.00 kg
Gesamtmasse 1480.00 kg
Länge 7.00 m
Durchmesser 2.40 m
Spannweite 7.00 m
Form Cyl + 2 Dish
Hersteller HSES
Bus-Typ HS-353
Phasenstatus Renamed
Besitzer/Staat INTEL/I-INT

Große Konstellationen

Loading constellations...